MMS 3

Last updated on Thu Dec 18 2025 00:02:41 GMT+0000 (Coordinated Universal Time)

1 40484U 15011C 25351.66670139 -.00000472 00000+0 00000+0 0 9994 2 40484 69.3449 351.4872 8502476 163.4486 144.0118 0.28359854 1308
UTC large
Height (km)
Speed (km/s)
/
Latitude / Longitude
Inclination (degrees)
Orbital Period (minutes)
Azimuth
Elevation
Range (km)
Doppler Factor

Next 0 passes for location: London (51.5072 / 0.1276)

Sorry there are no passes over London.